GW1852 Weather Reports


Display with metric or nautical units.
time (UTC)temp
F
wind
direction
speed
MPH
gust
MPH
rain 1hr
in
rain 24hr
in
rain mn
in
humidity
%
barometer
mb
20260831111548 49 263 0.0 4.0 0.00 0.00 0.00 76 1015.0
20260831110047 48 253 3.0 7.0 0.00 0.00 0.00 79 1014.9
20260831104554 49 3 0.0 0.0 0.00 0.00 0.00 79 1014.8
20260831103041 49 358 0.0 3.0 0.00 0.00 0.00 77 1014.5
20260831101545 49 335 1.0 3.0 0.00 0.00 0.00 76 1014.4
20260831100138 49 344 1.0 5.0 0.00 0.00 0.00 75 1014.4
20260831094543 49 288 3.0 9.0 0.00 0.00 0.00 77 1014.6
20260831093052 50 297 0.0 3.0 0.00 0.00 0.00 73 1014.5
20260831091543 49 271 4.0 7.0 0.00 0.00 0.00 76 1014.5
20260831090030 50 274 5.0 14.0 0.00 0.00 0.00 77 1014.1
20260831084606 50 274 10.0 15.0 0.00 0.03 0.00 73 1013.9
20260831083027 51 280 8.0 14.0 0.00 0.03 0.00 72 1013.8
20260831081526 50 272 7.0 14.0 0.00 0.03 0.00 77 1013.6
20260831080037 53 278 9.0 13.0 0.00 0.03 0.00 69 1013.6
20260831074536 52 276 10.0 14.0 0.00 0.05 0.00 68 1013.4
20260831073021 52 282 10.0 14.0 0.00 0.05 0.00 73 1013.4
20260831071517 52 270 8.0 12.0 0.00 0.05 0.00 74 1013.5
20260831070016 52 287 9.0 13.0 0.00 0.05 0.00 71 1013.5
20260831064513 52 245 4.0 10.0 0.00 0.06 0.00 74 1013.9
20260831063008 54 278 8.0 11.0 0.00 0.06 0.00 65 1013.5
20260831061505 54 285 6.0 10.0 0.00 0.06 0.00 63 1013.8
20260831060002 55 300 6.0 9.0 0.00 0.06 0.06 62 1013.9
20260831054501 55 297 6.0 9.0 0.00 0.06 0.06 62 1013.8
20260831053104 55 290 5.0 10.0 0.00 0.06 0.06 60 1013.6
20260831051559 56 312 7.0 13.0 0.00 0.06 0.06 58 1013.5
20260831050110 57 308 9.0 16.0 0.00 0.06 0.06 56 1013.5
20260831044559 58 306 13.0 19.0 0.00 0.06 0.06 54 1013.5
20260831043056 59 301 14.0 26.0 0.00 0.06 0.06 51 1013.5
20260831041554 59 300 16.0 24.0 0.00 0.06 0.06 51 1013.5
20260831040053 59 291 16.0 24.0 0.00 0.06 0.06 51 1013.4
20260831034602 60 304 15.0 22.0 0.00 0.09 0.06 49 1013.3
20260831033058 60 287 15.0 23.0 0.00 0.09 0.06 48 1013.3
20260831031555 60 293 14.0 23.0 0.00 0.09 0.06 48 1013.1
20260831030054 60 302 13.0 21.0 0.00 0.09 0.06 48 1012.9
20260831024557 61 297 18.0 26.0 0.00 0.09 0.06 45 1012.6
20260831023048 61 307 15.0 22.0 0.00 0.09 0.06 48 1012.4
20260831021550 61 302 16.0 24.0 0.00 0.09 0.06 46 1012.3
20260831020049 61 311 15.0 26.0 0.00 0.09 0.06 48 1012.2
20260831014549 61 298 16.0 27.0 0.00 0.09 0.06 48 1012.1
20260831013048 62 295 20.0 31.0 0.00 0.09 0.06 45 1012.0
20260831011552 63 306 13.0 32.0 0.00 0.09 0.06 46 1012.2
20260831010049 63 321 19.0 30.0 0.00 0.09 0.06 45 1012.2
20260831004544 63 323 0.0 0.0 0.00 0.09 0.06 43 1012.1
20260831003043 64 302 0.0 0.0 0.00 0.09 0.06 42 1012.1
20260831001542 64 295 0.0 0.0 0.00 0.09 0.06 41 1012.2
20260831000041 64 302 0.0 0.0 0.00 0.09 0.06 42 1012.1
20260830234545 65 282 0.0 0.0 0.00 0.09 0.06 41 1012.0
20260830233040 64 291 0.0 0.0 0.00 0.09 0.06 43 1012.0
20260830231539 64 297 0.0 0.0 0.00 0.09 0.06 42 1011.9
20260830230038 65 302 0.0 0.0 0.00 0.09 0.06 43 1011.8
20260830224536 65 293 0.0 0.0 0.00 0.48 0.06 41 1011.9
20260830223036 64 293 0.0 0.0 0.00 0.48 0.06 42 1012.0
20260830221537 64 320 0.0 0.0 0.00 0.48 0.06 44 1012.1
20260830220034 62 276 0.0 0.0 0.00 0.48 0.06 49 1012.3
20260830214532 62 274 0.0 0.0 0.00 0.55 0.06 49 1012.5
20260830213032 62 278 0.0 0.0 0.00 0.55 0.06 49 1012.5
20260830211531 62 293 0.0 0.0 0.00 0.55 0.06 47 1012.6
20260830210033 64 280 0.0 0.0 0.00 0.55 0.06 48 1012.6
20260830204530 63 259 0.0 0.0 0.00 0.55 0.06 49 1012.7
20260830203028 62 291 0.0 0.0 0.00 0.55 0.06 48 1012.6
20260830201526 61 307 0.0 0.0 0.00 0.55 0.06 48 1012.7
20260830200025 60 293 0.0 0.0 0.00 0.55 0.06 51 1012.8
20260830194525 63 297 0.0 0.0 0.00 0.55 0.06 45 1012.5
20260830193024 64 291 0.0 0.0 0.00 0.55 0.06 40 1012.3
20260830191522 65 335 0.0 0.0 0.00 0.55 0.06 40 1012.2
20260830190026 63 295 0.0 0.0 0.00 0.55 0.06 42 1012.3
20260830184522 64 286 0.0 0.0 0.00 0.55 0.06 41 1012.2
20260830183032 65 302 0.0 0.0 0.00 0.55 0.06 38 1012.3
20260830181521 65 281 0.0 0.0 0.00 0.55 0.06 38 1012.4
20260830180030 64 248 0.0 0.0 0.00 0.55 0.06 45 1012.6
20260830174520 64 260 0.0 0.0 0.00 0.55 0.06 46 1012.4
20260830173016 63 266 0.0 0.0 0.00 0.55 0.06 41 1012.4
20260830171516 63 279 0.0 0.0 0.00 0.55 0.06 43 1012.6
20260830170008 62 276 0.0 0.0 0.00 0.55 0.06 46 1012.7
20260830164504 61 283 0.0 0.0 0.00 0.55 0.06 48 1012.8
20260830163003 60 278 0.0 0.0 0.00 0.55 0.06 56 1012.9
20260830161558 59 279 0.0 0.0 0.00 0.55 0.06 61 1012.8
20260830160105 59 291 0.0 2.0 0.00 0.55 0.06 64 1013.0
20260830154556 58 250 0.0 0.0 0.00 0.55 0.06 65 1013.1
20260830153055 57 245 0.0 3.0 0.00 0.55 0.06 68 1013.1
20260830151553 57 253 0.0 3.0 0.00 0.55 0.06 68 1013.2
20260830150051 56 250 0.0 3.0 0.00 0.55 0.06 78 1013.4
20260830144601 56 263 0.0 0.0 0.00 0.55 0.06 81 1013.2
20260830143053 55 281 0.0 1.0 0.00 0.55 0.06 86 1013.1
20260830141549 54 287 0.0 1.0 0.00 0.55 0.06 84 1013.1
20260830140053 54 332 0.0 1.0 0.00 0.55 0.06 79 1013.1
20260830134559 54 283 0.0 0.0 0.00 0.55 0.06 84 1013.3
20260830133047 54 283 0.0 1.0 0.00 0.55 0.06 84 1013.2
20260830131552 54 283 0.0 1.0 0.00 0.55 0.06 83 1013.3
20260830130059 55 283 0.0 1.0 0.00 0.55 0.06 81 1013.1
20260830124545 55 271 0.0 2.0 0.00 0.55 0.06 82 1013.1
20260830123047 56 288 0.0 1.0 0.00 0.55 0.06 77 1012.7
20260830121552 57 248 0.0 1.0 0.00 0.55 0.06 74 1012.6
20260830120036 57 285 0.0 4.0 0.00 0.55 0.06 73 1012.5
20260830114537 57 244 0.0 1.0 0.00 0.55 0.06 79 1011.9
20260830113034 57 283 0.0 1.0 0.00 0.55 0.06 79 1012.7